JA0ZJX-13 Weather Reports


Display with metric or nautical units.
time (UTC)temp
F
wind
direction
speed
MPH
gust
MPH
rain 1hr
in
rain 24hr
in
rain mn
in
humidity
%
barometer
mb
20260505111332 60 150 9.0 18.0 0.00 0.00 0.00 65 1020.8
20260505110342 60 163 7.0 16.0 0.00 0.00 0.00 65 1020.7
20260505101332 63 161 8.0 19.0 0.00 0.00 0.00 60 1019.4
20260505100340 63 225 7.0 17.0 0.00 0.00 0.00 60 1019.4
20260505095329 64 177 6.0 15.0 0.00 0.00 0.00 59 1019.3
20260505094340 65 156 8.0 17.0 0.00 0.00 0.00 57 1019.1
20260505093334 66 159 9.0 16.0 0.00 0.00 0.00 56 1018.9
20260505092343 67 159 7.0 15.0 0.00 0.00 0.00 54 1018.8
20260505091331 68 173 5.0 10.0 0.00 0.00 0.00 52 1018.7
20260505090340 68 169 6.0 16.0 0.00 0.00 0.00 49 1018.7
20260505085332 69 202 7.0 15.0 0.00 0.00 0.00 47 1018.6
20260505084343 70 175 7.0 16.0 0.00 0.00 0.00 45 1018.5
20260505083332 70 205 6.0 19.0 0.00 0.00 0.00 43 1018.4
20260505082325 70 166 7.0 19.0 0.00 0.00 0.00 39 1018.3
20260505081333 70 145 13.0 21.0 0.00 0.00 0.00 36 1018.2
20260505080342 71 187 7.0 19.0 0.00 0.00 0.00 35 1018.2
20260505075331 71 144 8.0 18.0 0.00 0.00 0.00 34 1017.2
20260505074323 71 190 8.0 18.0 0.00 0.00 0.00 34 1017.1
20260505073332 71 171 8.0 18.0 0.00 0.00 0.00 33 1017.0
20260505072341 72 186 10.0 19.0 0.00 0.00 0.00 32 1017.0
20260505071330 72 157 5.0 15.0 0.00 0.00 0.00 32 1016.9
20260505070343 72 157 5.0 15.0 0.00 0.00 0.00 30 1016.9
20260505065330 72 149 4.0 17.0 0.00 0.00 0.00 29 1016.8
20260505064339 73 206 4.0 17.0 0.00 0.00 0.00 30 1016.7
20260505063328 72 180 2.0 18.0 0.00 0.00 0.00 29 1016.7
20260505062340 72 139 8.0 11.0 0.00 0.00 0.00 29 1016.8
20260505061327 72 148 8.0 15.0 0.00 0.00 0.00 29 1016.9
20260505060336 72 182 9.0 13.0 0.00 0.00 0.00 27 1016.9
20260505055328 72 203 5.0 15.0 0.00 0.00 0.00 27 1017.0
20260505054337 72 161 2.0 13.0 0.00 0.00 0.00 27 1017.0
20260505053326 72 204 2.0 10.0 0.00 0.00 0.00 25 1017.1
20260505052335 71 348 2.0 5.0 0.00 0.00 0.00 28 1017.1
20260505051325 70 296 1.0 6.0 0.00 0.00 0.00 29 1017.4
20260505050335 70 26 2.0 6.0 0.00 0.00 0.00 29 1017.4
20260505041327 67 19 3.0 7.0 0.00 0.00 0.00 31 1018.3
20260505040336 67 293 4.0 7.0 0.00 0.00 0.00 31 1018.3
20260505035327 66 57 2.0 4.0 0.00 0.00 0.00 30 1018.5
20260505034337 66 312 2.0 6.0 0.00 0.00 0.00 31 1018.7
20260505033325 65 317 4.0 7.0 0.00 0.00 0.00 32 1018.9
20260505032338 65 292 3.0 7.0 0.00 0.00 0.00 33 1019.0
20260505031328 64 281 1.0 6.0 0.00 0.00 0.00 34 1019.1
20260505030337 63 229 4.0 6.0 0.00 0.00 0.00 34 1019.1
20260505025326 62 325 2.0 9.0 0.00 0.00 0.00 32 1019.2
20260505024339 62 320 2.0 11.0 0.00 0.00 0.00 33 1019.4
20260505023327 62 51 3.0 9.0 0.00 0.00 0.00 37 1019.4
20260505022336 61 347 1.0 7.0 0.00 0.00 0.00 37 1019.6
20260505021326 61 283 3.0 4.0 0.00 0.00 0.00 40 1019.8
20260505020339 60 283 2.0 6.0 0.00 0.00 0.00 39 1019.8
20260505015327 59 26 4.0 7.0 0.00 0.00 0.00 40 1019.8
20260505014336 59 342 3.0 5.0 0.00 0.00 0.00 40 1019.9
20260505013329 59 304 2.0 5.0 0.00 0.00 0.00 40 1020.0
20260505012338 58 128 3.0 6.0 0.00 0.00 0.00 40 1020.3
20260505011327 58 66 3.0 5.0 0.00 0.00 0.00 43 1020.4
20260505010337 57 280 1.0 5.0 0.00 0.00 0.00 44 1020.5
20260505005331 57 202 3.0 5.0 0.00 0.00 0.00 45 1020.4
20260505004340 56 25 1.0 5.0 0.00 0.00 0.00 47 1021.5
20260505003331 55 230 2.0 5.0 0.00 0.00 0.00 47 1021.6
20260505002340 54 283 1.0 5.0 0.00 0.00 0.00 47 1021.5
20260505001334 54 132 3.0 5.0 0.00 0.00 0.00 49 1021.5
20260505000343 54 80 3.0 4.0 0.00 0.00 0.00 50 1021.5
20260504235333 53 338 2.0 5.0 0.00 0.00 0.00 52 1021.4
20260504234327 52 195 1.0 3.0 0.00 0.00 0.00 55 1021.2
20260504233336 52 194 2.0 4.0 0.00 0.00 0.00 56 1021.2
20260504232326 51 210 4.0 5.0 0.00 0.00 0.00 59 1021.3
20260504231335 51 194 1.0 4.0 0.00 0.00 0.00 61 1021.2
20260504230327 51 101 3.0 4.0 0.00 0.00 0.00 61 1021.1
20260504225334 50 130 1.0 3.0 0.00 0.00 0.00 64 1021.1
20260504224343 50 130 0.0 1.0 0.00 0.00 0.00 66 1021.0
20260504223330 49 131 0.0 2.0 0.00 0.00 0.00 69 1021.0
20260504222342 48 130 1.0 2.0 0.00 0.00 0.00 70 1020.8
20260504221331 48 130 1.0 3.0 0.00 0.00 0.00 71 1020.7
20260504220341 47 130 1.0 4.0 0.00 0.00 0.00 72 1020.8
20260504215330 46 130 0.0 0.0 0.00 0.00 0.00 74 1020.7
20260504214344 45 130 0.0 0.0 0.00 0.00 0.00 75 1020.6
20260504213332 45 131 0.0 0.0 0.00 0.00 0.00 78 1020.5
20260504212342 44 131 0.0 2.0 0.00 0.00 0.00 80 1020.3
20260504211334 42 131 0.0 1.0 0.00 0.02 0.00 80 1020.1
20260504210343 42 130 0.0 0.0 0.00 0.02 0.00 81 1019.9
20260504205331 41 130 0.0 0.0 0.00 0.02 0.00 82 1019.6
20260504204341 40 131 0.0 0.0 0.00 0.02 0.00 83 1019.5
20260504203334 40 131 0.0 0.0 0.00 0.02 0.00 83 1019.2
20260504202342 40 131 0.0 0.0 0.00 0.02 0.00 83 1019.1
20260504201330 40 131 0.0 3.0 0.00 0.11 0.00 83 1018.9
20260504200337 40 130 2.0 3.0 0.00 0.11 0.00 83 1018.8
20260504195330 40 129 1.0 2.0 0.00 0.11 0.00 83 1018.5
20260504194339 40 130 0.0 0.0 0.00 0.11 0.00 83 1018.4
20260504193330 41 131 0.0 0.0 0.00 0.11 0.00 83 1017.9
20260504192339 41 130 0.0 2.0 0.00 0.11 0.00 82 1017.7
20260504191333 41 131 0.0 2.0 0.00 0.20 0.00 82 1017.8
20260504190343 41 131 0.0 2.0 0.00 0.20 0.00 82 1017.6
20260504185333 41 130 1.0 4.0 0.00 0.20 0.00 82 1017.4
20260504184326 41 335 0.0 0.0 0.00 0.20 0.00 82 1017.2
20260504183336 42 360 0.0 2.0 0.00 0.20 0.00 81 1017.1
20260504182325 42 335 1.0 3.0 0.00 0.20 0.00 81 1016.9
20260504181335 42 360 1.0 3.0 0.00 0.31 0.00 80 1016.7
20260504180329 43 334 2.0 4.0 0.00 0.31 0.00 79 1016.5
20260504175338 43 336 2.0 4.0 0.00 0.31 0.00 78 1016.3
20260504174326 43 360 0.0 2.0 0.00 0.31 0.00 77 1016.2
20260504173335 44 335 1.0 3.0 0.00 0.31 0.00 76 1015.8
20260504172330 44 333 0.0 0.0 0.00 0.31 0.00 75 1015.6
20260504171339 44 360 0.0 2.0 0.00 0.49 0.00 74 1015.5
20260504170328 45 334 1.0 3.0 0.00 0.49 0.00 74 1015.4
20260504160329 46 325 9.0 15.0 0.00 0.57 0.00 73 1014.2
20260504150333 48 309 12.0 16.0 0.00 0.62 0.00 69 1013.0
20260504140330 50 30 4.0 13.0 0.00 0.67 0.58 65 1012.5
20260504130331 52 10 6.0 12.0 0.00 0.70 0.58 61 1011.6